www.pogodaiklimat.ru

Погода и климат >> Архив погоды >> Иран >> Ахваз


ПОГОДА в Ахвазе

  • Прогноз погоды в Ахвазе
  • Монитор погоды в Ахвазе

АРХИВ ПОГОДЫ в Ахвазе

Время (UTC), дата Ветер
(напр.,м/с)
 
Видим.   Явления Облачность Т
(С)
Тd
(С)
f
(%)
Тe
(С)
Тes
(С)
Комфортность P
(гПа)
Po
(гПа)
Тmin
(С)
Tmax
(С)
R
(мм)
R24
(мм)
S
(см)
18 12.06 З 5 10 км ясно +38.1 +3.8 12 +35 +35 очень
жарко
999.4 997.0
21 12.06 З 6 10 км ясно +35.0 +5.5 16 +32 +32 жарко 999.3 997.0
00 13.06 СЗ 4 10 км ясно +33.3 +2.2 14 +30 +30 жарко 999.7 997.3
03 13.06 СЗ 5 10 км ясно +32.7 +1.7 14 +30 +30 жарко 1000.2 997.7 +31.8 666
06 13.06 СЗ 3 10 км ясно +39.1 +0.5 9 +35 +47 очень
жарко
1001.5 999.1
09 13.06 СЗ 4 10 км ясно +43.3 -2.0 6 +39 +54 опасность
солнечного
удара
1000.5 998.1
12 13.06 СЗ 4 10 км ясно +44.7 -6.4 4 +40 +48 очень
жарко
998.8 996.4
15 13.06 СЗ 3 10 км ясно +43.0 -0.1 7 +39 +40 очень
жарко
998.3 995.9 +45.2
18 13.06 СЗ 3 10 км ясно +38.1 +4.9 13 +35 +35 очень
жарко
999.5 997.1
21 13.06 З 4 10 км ясно +34.3 +4.9 16 +32 +32 жарко 998.8 996.4
00 14.06 С 2 10 км ясно +32.2 +2.3 15 +29 +29 жарко 998.6 996.2
03 14.06 С 2 10 км ясно +31.4 +4.3 18 +29 +31 жарко 999.2 996.8 +31.2
06 14.06 С 3 10 км ясно +38.8 +5.4 13 +36 +48 очень
жарко
1000.3 997.9
09 14.06 СЗ 5 10 км ясно +44.4 -1.2 6 +40 +52 опасность
солнечного
удара
999.9 997.5
12 14.06 С 4 10 км ясно +46.0 -0.1 6 +42 +50 опасность
перегрева
998.2 995.8
15 14.06 С 1 10 км ясно +44.4 +0.9 7 +41 +41 опасность
перегрева
998.1 995.7 +46.3
18 14.06 З 2 10 км ясно +38.6 +7.4 15 +36 +36 очень
жарко
999.2 996.8
21 14.06 З 4 10 км ясно +36.8 +9.4 19 +35 +35 очень
жарко
999.0 996.6
00 15.06 СВ 2 10 км ясно +32.4 +8.0 22 +31 +31 жарко 998.2 995.8
03 15.06 СВ 1 8000 м мгла ясно +30.2 +10.7 30 +30 +32 жарко 998.7 996.3 +29.0
06 15.06 С 1 10 км ясно +41.7 +8.8 14 +40 +56 опасность
солнечного
удара
999.9 997.5
09 15.06 С 3 10 км ясно +46.9 +0.5 6 +43 +61 опасность
перегрева
999.3 996.9
12 15.06 СЗ 3 10 км ясно +47.5 -1.6 5 +43 +53 опасность
перегрева
998.3 995.9
15 15.06 З 2 10 км ясно +45.6 +3.6 8 +42 +43 опасность
перегрева
998.2 995.8 +48.1 666
18 15.06 С 1 10 км ясно +38.6 +7.4 15 +36 +36 очень
жарко
999.2 996.8
21 15.06 З 2 10 км ясно +35.3 +4.8 15 +33 +33 жарко 998.8 996.4
00 16.06 СЗ 1 10 км ясно +30.0 +9.5 28 +30 +30 жарко 998.6 996.2
03 16.06 З 1 8000 м мгла ясно +32.1 +12.4 30 +33 +34 жарко 999.3 996.9 +28.5 666
06 16.06 СЗ 1 8000 м мгла ясно +43.1 +9.9 14 +42 +58 опасность
перегрева
1000.1 997.7
09 16.06 С 2 10 км ясно +47.0 +4.6 8 +44 +66 опасность
перегрева
1000.3 997.9 666
12 16.06 З 3 10 км ясно +48.0 +3.4 7 +45 +54 опасность
перегрева
998.7 996.3
15 16.06 З 3 10 км ясно +45.7 +3.7 8 +43 +43 опасность
перегрева
998.5 996.1 +48.9
18 16.06 З 2 10 км ясно +39.2 +6.8 14 +37 +37 очень
жарко
999.8 997.4
21 16.06 З 2 10 км ясно +35.3 +8.2 19 +34 +34 очень
жарко
999.8 997.4
00 17.06 В 1 10 км ясно +32.9 +12.0 28 +33 +33 жарко 999.7 997.3
03 17.06 СЗ 1 7000 м мгла 1/0
[Ac trans]
+33.5 +12.5 28 +34 +35 очень
жарко
1000.7 998.3 +30.3
06 17.06 СЗ 2 10 км ясно +41.8 +8.9 14 +40 +54 опасность
солнечного
удара
1001.6 999.2
09 17.06 З 3 10 км ясно +46.7 +4.4 8 +44 +62 опасность
перегрева
1001.4 999.0 666
12 17.06 З 5 10 км ясно +46.5 +0.2 6 +43 +49 опасность
перегрева
1000.6 998.2
15 17.06 СЗ 4 10 км ясно +44.6 +2.9 8 +41 +42 опасность
перегрева
1000.1 997.7 +47.3 666
18 17.06 З 3 10 км ясно +39.7 +7.2 14 +37 +37 очень
жарко
1001.3 998.9
21 17.06 СЗ 3 10 км ясно +36.4 +11.3 22 +36 +36 очень
жарко
1001.8 999.4
00 18.06 СЗ 3 10 км ясно +33.9 +11.1 25 +33 +33 жарко 1001.3 998.9
03 18.06 СЗ 4 10 км ясно +35.5 +5.9 16 +33 +34 жарко 1001.6 999.2 +33.5
06 18.06 С 3 10 км ясно +40.3 +5.5 12 +37 +49 очень
жарко
1002.2 999.8
09 18.06 З 7 2000 м пыльный позёмок ясно +44.5 +7.4 11 +42 +48 опасность
перегрева
1000.6 998.2 666
12 18.06 СЗ 6 8000 м пыльный позёмок ясно +45.1 +4.9 9 +42 +47 опасность
перегрева
998.9 996.6
15 18.06 З 6 8000 м пыльный позёмок ясно +42.9 +6.2 11 +40 +40 очень
жарко
998.3 995.9 +45.3
18 18.06 СЗ 6 10 км ясно +38.3 +9.0 17 +37 +37 очень
жарко
999.7 997.3
21 18.06 З 6 10 км ясно +35.8 +8.6 19 +34 +34 очень
жарко
999.4 997.0
03 19.06 СЗ 4 10 км ясно +34.4 +8.2 20 +33 +34 жарко 998.4 996.0 +33.8
06 19.06 СЗ 6 10 км ясно +40.6 +3.1 10 +37 +43 очень
жарко
998.8 996.4
09 19.06 З 9 6000 м пыльный позёмок ясно +42.5 +1.4 8 +39 +41 очень
жарко
998.6 996.2
12 19.06 З 8 10 км ясно +42.1 +4.2 10 +39 +41 очень
жарко
997.6 995.2

 

Местоположение метеостанции Ахваз (Иран): широта 31.33 долгота 48.67 высота над уровнем моря 22 м.

В архиве по умолчанию представлена погода в Ахвазе за последнюю неделю. Архивные данные за месяц целиком и за предыдущие месяцы, начиная с января 2011 года, Вы можете получить, выбрав интересующий диапазон дат из раскрывающегося списка и нажав кнопку "Ввод!".


*Определитесь, кто Вы:
робот инопланетянин человек

Внимание! Время в таблицах - всемирное. Для получения местного времени необходимо прибавить поправку, которая равна 3.5 ч.

Смотрите также архив погоды в соседних городах и на ближайших метеорологических станциях:

Погода в Месджеде-Солеймане (Иран) (92 км)
Погода в Сафиабаде (Иран) (107 км)
Погода в Омидийе (Иран) (114 км)
Погода в Абадане (Иран) (114 км)
Погода в Басре (Ирак) (120 км)
Погода в Басре аэропорт (Ирак) (124 км)
Погода в Эль-Фао (Ирак) (151 км)
Погода в Амаре (Ирак) (153 км)
Погода в Абдали (Кувейт) (167 км)
Погода на Бубияне (Кувейт) (176 км)

Пояснения к столбцам:

Ветер - указаны скорость ветра в м/с - средняя за 10 мин, порывы в срок и между сроками (в фигурных скобках) и направление, откуда дует ветер: С - северный, СВ - северо-восточный, В - восточный, ЮВ - юго-восточный, Ю - южный, ЮЗ - юго-западный, З - западный, СЗ - северо-западный.
Видимость - горизонтальная дальность видимости в метрах или километрах. При видимости от 1 до 10 км при отсутствии осадков обычно наблюдается дымка, при ухудшении видимости до 1 км и менее - туман. В сухую погоду видимость может ухудшаться дымом, пылью или мглою.
Явления - указаны атмосферные явления, наблюдавшиеся в срок или в последний час перед сроком; фигурными скобками обозначены явления, наблюдавшиеся между сроками (за 1-3 часа до срока); квадратными скобками обозначены град или гололедные отложения с указанием их диаметра в мм.
Облачность - указаны через наклонную черту общая и нижняя облачность в баллах и высота нижней границы облаков в метрах; квадратными скобками обозначены формы облаков: Ci - перистые, Cs - перисто-слоистые, Cc - перисто-кучевые, Ac - высококучевые, As - высокослоистые, Sc - слоисто-кучевые, Ns - слоисто-дождевые, Cu - кучевые, Cb - кучево-дождевые. Подробнее классификацию облаков см. в Атласе облаков (PDF).
T - Температура воздуха - температура, измеренная на высоте 2 м над землей.
Td - Температура точки росы - температура, при понижении до которой содержащийся в воздухе водяной пар достигнет насыщения.
f - Относительная влажность воздуха - влажноcть воздуха, измеренная на высоте 2 м над землей.
Te - Эффективная температура - температура, которую ощущает одетый по сезону человек в тени. Характеристика душности погоды. При расчете учитывается влияние влажности воздуха и скорости ветра на теплоощущения человека.
Tes - Эффективная температура на солнце - температура, которую ощущает человек, с поправкой на солнечный нагрев. Характеристика знойности погоды. Зависит от высоты солнца над горизонтом, облачности и скорости ветра. Ночью, в пасмурную погоду, а также при ветре 12 м/с и более поправка равна нулю.
P - Атмосферное давление - приведенное к уровню моря атмосферное давление.
Po - Атмосферное давление - измеренное на уровне метеостанции атмосферное давление.
Tmin - Минимальная температура - минимум температуры воздуха на высоте 2 м над землей.
Tmax - Максимальная температура - максимум температуры воздуха на высоте 2 м над землей.
R - Количество осадков - Количество выпавших осадков за период времени, мм. При наведении курсора мыши на число - период времени, за который выпало указанное количество осадков.
R24 - Количество осадков - Количество выпавших осадков за 24 часа, мм.
S - Снежный покров - Высота снежного покрова, см. При наведении курсора мыши на число - состояние снежного покрова и степень покрытия местности в баллах.